Location: Unspecified
(33.9239°N, 118.0544°W)
Time: 05:49:07
(UTC-07:00)

Cosmos 1674 - Visible Passes

Search period start: 19 October 2017 00:00
Search period end: 29 October 2017 00:00
Orbit: 497 x 523 km, 82.5° (Epoch: 18 October)

Date Brightness Start Highest point End Pass type
(mag) Time Alt. Az. Time Alt. Az. Time Alt. Az.
19 Oct 4.9 05:45:52 10° SSE 05:49:03 27° E 05:52:15 10° NNE visible
20 Oct 5.4 05:29:27 10° SE 05:32:18 21° E 05:35:10 10° NE visible
21 Oct 5.8 05:13:13 10° SE 05:15:34 16° E 05:17:55 10° NE visible
22 Oct 6.1 04:57:16 10° ESE 04:58:50 12° E 05:00:24 10° ENE visible
22 Oct 3.5 06:30:50 10° SW 06:34:05 29° W 06:37:22 10° NNW visible
23 Oct 3.1 06:13:46 10° SSW 06:17:14 38° W 06:20:45 10° N visible
24 Oct 2.7 05:56:48 10° SSW 06:00:25 51° W 06:04:04 10° N visible
25 Oct 2.4 05:39:54 10° SSW 05:43:36 71° W 05:47:19 10° N visible
26 Oct 2.5 05:23:54 16° S 05:26:47 84° E 05:30:31 10° N visible
27 Oct 3.9 05:11:20 35° NNE 05:11:20 35° NNE 05:13:40 10° NNE visible
28 Oct 5.5 04:56:37 11° NNE 04:56:37 11° NNE 04:56:46 10° NNE visible
